Regional Weather Roundup
Issued by NWS Albany, NY

Home | Current Version | Previous Version | Graphics & Text | Print | Product List | Glossary Off
Versions: 1 2 3 4 5 6 7 8 9 10 11 12 13 14 15 16 17 18 19 20 21 22 23 24 25 26 27 28 29 30 31 32 33 34 35 36 37 38 39 40 41 42 43 44 45 46 47 48 49 50

000
ASUS41 KALY 290510
RWRALY

NEW YORK STATE HOURLY WEATHER ROUNDUP
NATIONAL WEATHER SERVICE ALBANY NY
100 AM EDT TUE JUL 29 2014

NOTE: "FAIR" INDICATES FEW OR NO CLOUDS BELOW 12,000 FEET WITH NO
SIGNIFICANT WEATHER AND/OR NO OBSTRUCTIONS TO VISIBILITY.

NYZ032-033-038>043-046>054-057>066-NYZ062>081-290600-
EAST


CITY           SKY/WX    TMP DP  RH WIND       PRES   REMARKS
ALBANY         CLOUDY    62  58  86 W7        29.70R
GLENS FALLS    CLOUDY    62  55  77 NW5       29.67R
POUGHKEEPSIE   CLOUDY    67  57  70 W6        29.68R
MONTGOMERY     PTCLDY    64  56  75 NW10G18   29.71S
WHITE PLAINS   PTCLDY    65  57  75 NW14      29.69R
ISLIP          MOCLDY    70  57  63 W10       29.66R
NEW YORK CITY  PTCLDY    69  57  65 NW21G32   29.70R
CENTRAL PARK   PTCLDY    68  55  63 VRB6      29.74R
$$

NYZ005>009-017-018-044>046-055-056-290600-
CENTRAL


CITY           SKY/WX    TMP DP  RH WIND       PRES   REMARKS
FULTON         PTCLDY    54  52  93 W3        29.80R
SYRACUSE       MOCLDY    58  58 100 W8        29.79S
ROME           CLOUDY    58  56  93 CALM      29.77F
ELMIRA         CLOUDY    59  57  93 CALM      29.83S
BINGHAMTON     MOCLDY    55  54  94 W3        29.82S
MONTICELLO     CLOUDY    57  54  88 NW13G20   29.78S
$$

NYZ026>034-041>043-290600-
NORTH


CITY           SKY/WX    TMP DP  RH WIND       PRES   REMARKS
WATERTOWN      PTCLDY    59  50  72 W5        29.77S
FORT DRUM      NOT AVBL
MASSENA        MOCLDY    59  52  77 NW8       29.72F
SARANAC LAKE   CLOUDY    54  52  93 NW3       29.71S
PLATTSBURGH    CLOUDY    59  55  87 NW7       29.66F
$$

NYZ001>004-010>016-019>021-290600-
WEST


CITY           SKY/WX    TMP DP  RH WIND       PRES   REMARKS
NIAGARA FALLS  CLEAR     57  50  77 NW9       29.86S
BUFFALO        PTCLDY    56  50  80 W7        29.87S
DUNKIRK        CLOUDY    60  49  66 W13       29.90S
JAMESTOWN      MOCLDY    54  48  82 NW9       29.91S
WELLSVILLE     CLOUDY    55  49  80 NW9       29.90S
ROCHESTER      PTCLDY    57  54  89 W6        29.84S
PENN YAN       MOCLDY    59  55  87 VRB5      29.84S
$$

             KEY
       WCI = WIND CHILL INDEX
       VSB = VISIBILITY
       HX  = HEAT INDEX
$$


USA.gov is the U.S. government's official web portal to all federal, state and local government web resources and services.